| time (UTC) | temp F | wind direction | speed knots | gust knots | rain 1hr in | rain 24hr in | rain mn in | humidity % | barometer mb |
| 20260505064636 | 71 | 0.0 | 0.0 | 0.00 | 0.01 | 0.01 | 39 | 1018.1 | |
| 20260505064132 | 72 | 0.0 | 0.0 | 0.00 | 0.01 | 0.01 | 38 | 1018.0 | |
| 20260505063711 | 73 | 0.0 | 1.7 | 0.00 | 0.01 | 0.01 | 36 | 1017.9 | |
| 20260505063251 | 73 | 0.0 | 0.9 | 0.00 | 0.01 | 0.01 | 35 | 1017.8 | |
| 20260505062650 | 74 | 0.0 | 0.9 | 0.00 | 0.01 | 0.01 | 35 | 1017.8 | |
| 20260505062250 | 75 | 0.0 | 0.9 | 0.00 | 0.01 | 0.01 | 35 | 1017.8 | |
| 20260505061748 | 74 | 0.0 | 0.0 | 0.00 | 0.01 | 0.01 | 35 | 1017.8 | |
| 20260505061206 | 74 | 0.0 | 0.0 | 0.00 | 0.01 | 0.01 | 35 | 1017.8 | |
| 20260505060644 | 74 | 0.0 | 0.9 | 0.00 | 0.01 | 0.01 | 35 | 1017.7 | |
| 20260505055102 | 75 | 0.0 | 1.7 | 0.00 | 0.01 | 0.01 | 34 | 1017.7 | |
| 20260505054644 | 74 | 0.0 | 0.9 | 0.00 | 0.01 | 0.01 | 36 | 1017.7 | |
| 20260505054119 | 74 | 180 | 0.0 | 2.6 | 0.00 | 0.01 | 0.01 | 35 | 1017.7 |
| 20260505053618 | 75 | 158 | 0.0 | 4.3 | 0.00 | 0.01 | 0.01 | 34 | 1017.6 |
| 20260505053237 | 75 | 0.0 | 0.9 | 0.00 | 0.01 | 0.01 | 35 | 1017.7 | |
| 20260505052717 | 74 | 0.0 | 0.9 | 0.00 | 0.01 | 0.01 | 35 | 1017.6 | |
| 20260505052055 | 75 | 0.0 | 0.9 | 0.00 | 0.01 | 0.01 | 35 | 1017.7 | |
| 20260505051636 | 75 | 0.0 | 1.7 | 0.00 | 0.01 | 0.01 | 35 | 1017.7 | |
| 20260505051113 | 74 | 0.0 | 0.9 | 0.00 | 0.01 | 0.01 | 37 | 1017.7 | |
| 20260505050653 | 75 | 270 | 0.0 | 3.5 | 0.00 | 0.01 | 0.01 | 35 | 1017.7 |
| 20260505050150 | 75 | 338 | 0.0 | 1.7 | 0.00 | 0.01 | 0.01 | 36 | 1017.7 |
| 20260505041641 | 75 | 125 | 0.9 | 7.0 | 0.00 | 0.01 | 0.01 | 36 | 1017.2 |
| 20260505041059 | 76 | 0.0 | 3.5 | 0.00 | 0.01 | 0.01 | 39 | 1017.2 | |
| 20260505040638 | 75 | 0.0 | 1.7 | 0.00 | 0.01 | 0.01 | 38 | 1017.2 | |
| 20260505040038 | 75 | 225 | 0.0 | 4.3 | 0.00 | 0.01 | 0.01 | 40 | 1017.1 |
| 20260505035638 | 74 | 0.0 | 1.7 | 0.00 | 0.01 | 0.01 | 40 | 1017.2 | |
| 20260505035055 | 74 | 0.0 | 1.7 | 0.00 | 0.01 | 0.01 | 39 | 1017.2 | |
| 20260505034554 | 75 | 180 | 0.9 | 7.8 | 0.00 | 0.01 | 0.01 | 38 | 1017.3 |
| 20260505034053 | 75 | 0.0 | 1.7 | 0.00 | 0.01 | 0.01 | 40 | 1017.2 | |
| 20260505033632 | 74 | 0.0 | 1.7 | 0.00 | 0.01 | 0.01 | 40 | 1017.4 | |
| 20260505033152 | 74 | 0.0 | 1.7 | 0.00 | 0.01 | 0.01 | 40 | 1017.5 | |
| 20260505032631 | 74 | 0.0 | 0.9 | 0.00 | 0.01 | 0.01 | 41 | 1017.5 | |
| 20260505032028 | 74 | 0.0 | 1.7 | 0.00 | 0.01 | 0.01 | 40 | 1017.6 | |
| 20260505031627 | 74 | 0.0 | 0.9 | 0.00 | 0.01 | 0.01 | 41 | 1017.6 | |
| 20260505031026 | 73 | 270 | 0.9 | 7.0 | 0.00 | 0.01 | 0.01 | 41 | 1017.5 |
| 20260505030625 | 73 | 280 | 0.9 | 7.0 | 0.00 | 0.01 | 0.01 | 41 | 1017.6 |
| 20260505030124 | 73 | 270 | 0.0 | 3.5 | 0.00 | 0.01 | 0.01 | 41 | 1017.7 |
| 20260505025523 | 73 | 257 | 0.9 | 7.0 | 0.00 | 0.01 | 0.01 | 43 | 1017.7 |
| 20260505025042 | 72 | 0.0 | 1.7 | 0.00 | 0.01 | 0.01 | 44 | 1017.8 | |
| 20260505024602 | 71 | 0 | 0.9 | 6.1 | 0.00 | 0.01 | 0.01 | 45 | 1017.8 |
| 20260505024201 | 71 | 234 | 0.9 | 12.2 | 0.00 | 0.01 | 0.01 | 43 | 1017.8 |
| 20260505023558 | 73 | 302 | 0.9 | 9.6 | 0.00 | 0.01 | 0.01 | 42 | 1017.9 |
| 20260505023038 | 73 | 0.0 | 1.7 | 0.00 | 0.01 | 0.01 | 42 | 1018.0 | |
| 20260505022557 | 74 | 225 | 1.7 | 7.0 | 0.00 | 0.01 | 0.01 | 43 | 1018.1 |
| 20260505022137 | 73 | 0.0 | 1.7 | 0.00 | 0.01 | 0.01 | 46 | 1018.1 | |
| 20260505021614 | 72 | 270 | 0.0 | 3.5 | 0.00 | 0.01 | 0.01 | 49 | 1018.1 |
| 20260505020734 | 71 | 0.0 | 2.6 | 0.00 | 0.01 | 0.01 | 50 | 1018.1 | |
| 20260505020111 | 71 | 315 | 0.9 | 7.8 | 0.00 | 0.01 | 0.01 | 50 | 1018.1 |
| 20260505015129 | 70 | 0.0 | 4.3 | 0.00 | 0.01 | 0.01 | 50 | 1018.3 | |
| 20260505014749 | 70 | 0.0 | 0.9 | 0.01 | 0.01 | 0.01 | 50 | 1018.4 | |
| 20260505014128 | 70 | 283 | 1.7 | 9.6 | 0.01 | 0.01 | 0.01 | 51 | 1018.6 |
| 20260505013706 | 70 | 0.0 | 1.7 | 0.01 | 0.01 | 0.01 | 50 | 1018.7 | |
| 20260505013205 | 70 | 237 | 0.9 | 4.3 | 0.01 | 0.01 | 0.01 | 50 | 1018.7 |
| 20260505012122 | 70 | 0.0 | 1.7 | 0.01 | 0.01 | 0.01 | 51 | 1018.7 | |
| 20260505011702 | 69 | 0.0 | 1.7 | 0.01 | 0.01 | 0.01 | 53 | 1018.8 | |
| 20260505011220 | 69 | 0.0 | 0.0 | 0.01 | 0.01 | 0.01 | 52 | 1018.9 | |
| 20260505010118 | 68 | 0.0 | 1.7 | 0.01 | 0.01 | 0.01 | 54 | 1018.9 | |
| 20260505005657 | 67 | 225 | 0.0 | 7.0 | 0.01 | 0.01 | 0.01 | 55 | 1019.0 |
| 20260505005158 | 67 | 0.0 | 0.9 | 0.01 | 0.01 | 0.01 | 54 | 1019.1 | |
| 20260505004614 | 0 | 0.0 | 0.0 | 0.00 | 0.00 | 0.00 | 1019.3 | ||
| 20260505004235 | 0 | 0.0 | 0.0 | 0.00 | 0.00 | 0.00 | 1019.3 | ||
| 20260505003632 | 0 | 0.0 | 0.0 | 0.00 | 0.00 | 0.00 | 1019.4 | ||
| 20260505003111 | 0 | 0.0 | 0.0 | 0.00 | 0.00 | 0.00 | 1019.5 | ||
| 20260505002630 | 0 | 0.0 | 0.0 | 0.00 | 0.00 | 0.00 | 1019.4 | ||
| 20260505001650 | 0 | 0.0 | 0.0 | 0.00 | 0.00 | 0.00 | 1019.3 | ||
| 20260505001228 | 0 | 0.0 | 0.0 | 0.00 | 0.00 | 0.00 | 1019.2 | ||
| 20260505000646 | 0 | 0.0 | 0.0 | 0.00 | 0.00 | 0.00 | 1019.3 | ||
| 20260505000226 | 0 | 0.0 | 0.0 | 0.00 | 0.00 | 0.00 | 1019.3 | ||
| 20260504235624 | 0 | 0.0 | 0.0 | 0.00 | 0.00 | 0.00 | 1019.3 | ||
| 20260504235143 | 0 | 0.0 | 0.0 | 0.00 | 0.00 | 0.00 | 1019.4 | ||
| 20260504234541 | 0 | 0.0 | 0.0 | 0.00 | 0.00 | 0.00 | 1019.4 | ||
| 20260504234100 | 0 | 0.0 | 0.0 | 0.00 | 0.00 | 0.00 | 1019.4 | ||
| 20260504233621 | 0 | 0.0 | 0.0 | 0.00 | 0.00 | 0.00 | 1019.5 | ||
| 20260504233058 | 0 | 0.0 | 0.0 | 0.00 | 0.00 | 0.00 | 1019.5 | ||
| 20260504232638 | 0 | 0.0 | 0.0 | 0.00 | 0.00 | 0.00 | 1019.6 | ||
| 20260504232056 | 0 | 0.0 | 0.0 | 0.00 | 0.00 | 0.00 | 1019.6 | ||
| 20260504231636 | 0 | 0.0 | 0.0 | 0.00 | 0.00 | 0.00 | 1019.5 | ||
| 20260504231216 | 0 | 0.0 | 0.0 | 0.00 | 0.00 | 0.00 | 1019.4 | ||
| 20260504230614 | 0 | 0.0 | 0.0 | 0.00 | 0.00 | 0.00 | 1019.4 | ||
| 20260504230031 | 0 | 0.0 | 0.0 | 0.00 | 0.00 | 0.00 | 1019.3 | ||
| 20260504225049 | 0 | 0.0 | 0.0 | 0.00 | 0.00 | 0.00 | 1019.3 | ||
| 20260504224629 | 0 | 0.0 | 0.0 | 0.00 | 0.00 | 0.00 | 1019.3 | ||
| 20260504224027 | 0 | 0.0 | 0.0 | 0.00 | 0.00 | 0.00 | 1019.3 | ||
| 20260504223609 | 0 | 0.0 | 0.0 | 0.00 | 0.00 | 0.00 | 1019.3 | ||
| 20260504223206 | 0 | 0.0 | 0.0 | 0.00 | 0.00 | 0.00 | 1019.4 | ||
| 20260504222624 | 0 | 0.0 | 0.0 | 0.00 | 0.00 | 0.00 | 1019.3 | ||
| 20260504222143 | 0 | 0.0 | 0.0 | 0.00 | 0.00 | 0.00 | 1019.4 | ||
| 20260504221522 | 0 | 0.0 | 0.0 | 0.00 | 0.00 | 0.00 | 1019.4 | ||
| 20260504221040 | 0 | 0.0 | 0.0 | 0.00 | 0.00 | 0.00 | 1019.3 | ||
| 20260504220600 | 0 | 0.0 | 0.0 | 0.00 | 0.00 | 0.00 | 1019.3 | ||
| 20260504220120 | 0 | 0.0 | 0.0 | 0.00 | 0.00 | 0.00 | 1019.2 | ||
| 20260504215537 | 0 | 0.0 | 0.0 | 0.00 | 0.00 | 0.00 | 1019.1 | ||
| 20260504215036 | 0 | 0.0 | 0.0 | 0.00 | 0.00 | 0.00 | 1019.1 | ||
| 20260504214615 | 0 | 0.0 | 0.0 | 0.00 | 0.00 | 0.00 | 1018.8 | ||
| 20260504214155 | 0 | 0.0 | 0.0 | 0.00 | 0.00 | 0.00 | 1018.8 | ||
| 20260504213614 | 0 | 0.0 | 0.0 | 0.00 | 0.00 | 0.00 | 1018.7 | ||
| 20260504213153 | 0 | 0.0 | 0.0 | 0.00 | 0.00 | 0.00 | 1018.6 | ||
| 20260504212611 | 0 | 0.0 | 0.0 | 0.00 | 0.00 | 0.00 | 1018.5 | ||
| 20260504212110 | 0 | 0.0 | 0.0 | 0.00 | 0.00 | 0.00 | 1018.5 | ||
| 20260504211127 | 0 | 0.0 | 0.0 | 0.00 | 0.00 | 0.00 | 1018.4 | ||
| 20260504210747 | 0 | 0.0 | 0.0 | 0.00 | 0.00 | 0.00 | 1018.4 | ||
| 20260504205123 | 0 | 0.0 | 0.0 | 0.00 | 0.00 | 0.00 | 1018.2 | ||
| 20260504204643 | 0 | 0.0 | 0.0 | 0.00 | 0.00 | 0.00 | 1018.1 | ||
| 20260504204122 | 0 | 0.0 | 0.0 | 0.00 | 0.00 | 0.00 | 1018.0 | ||
| 20260504203642 | 0 | 0.0 | 0.0 | 0.00 | 0.00 | 0.00 | 1017.9 | ||
| 20260504203119 | 0 | 0.0 | 0.0 | 0.00 | 0.00 | 0.00 | 1017.8 | ||
| 20260504202638 | 0 | 0.0 | 0.0 | 0.00 | 0.00 | 0.00 | 1017.8 | ||
| 20260504201555 | 0 | 0.0 | 0.0 | 0.00 | 0.00 | 0.00 | 1017.6 | ||
| 20260504200713 | 0 | 0.0 | 0.0 | 0.00 | 0.00 | 0.00 | 1017.6 | ||
| 20260504195612 | 0 | 0.0 | 0.0 | 0.00 | 0.00 | 0.00 | 1017.5 | ||
| 20260504195110 | 0 | 0.0 | 0.0 | 0.00 | 0.00 | 0.00 | 1017.4 | ||
| 20260504194629 | 0 | 0.0 | 0.0 | 0.00 | 0.00 | 0.00 | 1017.3 | ||
| 20260504194109 | 0 | 0.0 | 0.0 | 0.00 | 0.00 | 0.00 | 1017.3 | ||
| 20260504193647 | 0 | 0.0 | 0.0 | 0.00 | 0.00 | 0.00 | 1017.3 | ||
| 20260504193226 | 0 | 0.0 | 0.0 | 0.00 | 0.00 | 0.00 | 1017.3 | ||
| 20260504192645 | 0 | 0.0 | 0.0 | 0.00 | 0.00 | 0.00 | 1017.2 | ||
| 20260504192104 | 0 | 0.0 | 0.0 | 0.00 | 0.00 | 0.00 | 1017.2 | ||
| 20260504191643 | 0 | 0.0 | 0.0 | 0.00 | 0.00 | 0.00 | 1017.1 | ||
| 20260504191204 | 0 | 0.0 | 0.0 | 0.00 | 0.00 | 0.00 | 1017.2 | ||
| 20260504190540 | 0 | 0.0 | 0.0 | 0.00 | 0.00 | 0.00 | 1017.1 | ||
| 20260504185639 | 0 | 0.0 | 0.0 | 0.00 | 0.00 | 0.00 | 1016.9 | ||
| 20260504185057 | 0 | 0.0 | 0.0 | 0.00 | 0.00 | 0.00 | 1016.9 | ||
| 20260504184636 | 0 | 0.0 | 0.0 | 0.00 | 0.00 | 0.00 | 1016.9 | ||
| 20260504184055 | 0 | 0.0 | 0.0 | 0.00 | 0.00 | 0.00 | 1016.8 | ||
| 20260504183634 | 0 | 0.0 | 0.0 | 0.00 | 0.00 | 0.00 | 1016.8 | ||
| 20260504183213 | 0 | 0.0 | 0.0 | 0.00 | 0.00 | 0.00 | 1016.6 | ||
| 20260504182632 | 0 | 0.0 | 0.0 | 0.00 | 0.00 | 0.00 | 1016.6 | ||
| 20260504182050 | 0 | 0.0 | 0.0 | 0.00 | 0.00 | 0.00 | 1016.6 | ||
| 20260504181631 | 0 | 0.0 | 0.0 | 0.00 | 0.00 | 0.00 | 1016.5 | ||
| 20260504181048 | 0 | 0.0 | 0.0 | 0.00 | 0.00 | 0.00 | 1016.5 | ||
| 20260504180607 | 0 | 0.0 | 0.0 | 0.00 | 0.00 | 0.00 | 1016.5 | ||
| 20260504180026 | 0 | 0.0 | 0.0 | 0.00 | 0.00 | 0.00 | 1016.6 | ||
| 20260504175626 | 0 | 0.0 | 0.0 | 0.00 | 0.00 | 0.00 | 1016.6 | ||
| 20260504175044 | 0 | 0.0 | 0.0 | 0.00 | 0.00 | 0.00 | 1016.5 | ||
| 20260504174603 | 0 | 0.0 | 0.0 | 0.00 | 0.00 | 0.00 | 1016.5 | ||
| 20260504174044 | 0 | 0.0 | 0.0 | 0.00 | 0.00 | 0.00 | 1016.5 | ||
| 20260504173621 | 0 | 0.0 | 0.0 | 0.00 | 0.00 | 0.00 | 1016.6 | ||
| 20260504173040 | 0 | 0.0 | 0.0 | 0.00 | 0.00 | 0.00 | 1016.6 | ||
| 20260504172539 | 0 | 0.0 | 0.0 | 0.00 | 0.00 | 0.00 | 1016.7 | ||
| 20260504171115 | 0 | 0.0 | 0.0 | 0.00 | 0.00 | 0.00 | 1016.8 | ||
| 20260504170800 | 0 | 0.0 | 0.0 | 0.00 | 0.00 | 0.00 | 1016.7 | ||
| 20260504170133 | 0 | 0.0 | 0.0 | 0.00 | 0.00 | 0.00 | 1016.7 | ||
| 20260504160121 | 0 | 0.0 | 0.0 | 0.00 | 0.00 | 0.00 | 1016.9 | ||
| 20260504151109 | 0 | 0.0 | 0.0 | 0.00 | 0.00 | 0.00 | 1016.6 | ||
| 20260504150648 | 0 | 0.0 | 0.0 | 0.00 | 0.00 | 0.00 | 1016.5 | ||
| 20260504150107 | 0 | 0.0 | 0.0 | 0.00 | 0.00 | 0.00 | 1016.6 | ||
| 20260504141156 | 0 | 0.0 | 0.0 | 0.00 | 0.00 | 0.00 | 1016.6 | ||
| 20260504130603 | 0 | 0.0 | 0.0 | 0.00 | 0.00 | 0.00 | 1016.6 | ||
| 20260504120249 | 0 | 0.0 | 0.0 | 0.00 | 0.00 | 0.00 | 1016.5 | ||
| 20260504110656 | 0 | 0.0 | 0.0 | 0.00 | 0.00 | 0.00 | 1016.0 | ||
| 20260504110156 | 0 | 0.0 | 0.0 | 0.00 | 0.00 | 0.00 | 1016.0 | ||
| 20260504090117 | 0 | 0.0 | 0.0 | 0.00 | 0.00 | 0.00 | 1015.6 | ||
| 20260504081636 | 0 | 0.0 | 0.0 | 0.00 | 0.00 | 0.00 | 1015.3 | ||
| 20260504080653 | 0 | 0.0 | 0.0 | 0.00 | 0.00 | 0.00 | 1015.2 | ||
| 20260504080134 | 0 | 0.0 | 0.0 | 0.00 | 0.00 | 0.00 | 1015.2 | ||
| 20260504070129 | 0 | 0.0 | 0.0 | 0.00 | 0.00 | 0.00 | 1014.9 |